Weather History for Wilmington, DE

Change the Weather History Date:

Wednesday, March 19, 2014

  Actual Average Record
Temperature  
Mean Temperature 40 °F 44 °F  
Max Temperature 46 °F 53 °F 78 °F (1925)
Min Temperature 34 °F 34 °F 12 °F (1967)
Degree Days  
Heating Degree Days 25 21  
Month to date heating degree days 545 455  
Since 1 July heating degree days 4400 4078  
Cooling Degree Days 0 0  
Month to date cooling degree days 0 0  
Year to date cooling degree days 0 0  
Moisture  
Dew Point 38 °F    
Average Humidity 85    
Maximum Humidity 100    
Minimum Humidity 70    
Precipitation  
Precipitation 0.62 in 0.13 in 2.02 in (1896)
Month to date precipitation 1.53 2.28  
Year to date precipitation 10.11 7.97  
Snow  
Snow 0.00 in 0.10 in 7.60 in (1958)
Month to date snowfall 7.0 1.6  
Since 1 July snowfall 55.4 19.6  
Snow Depth 0.00 in    
Sea Level Pressure  
Sea Level Pressure 30.06 in    
Wind  
Wind Speed 8 mph (ENE)    
Max Wind Speed 16 mph    
Max Gust Speed 21 mph    
Visibility 6 miles    
Events Rain    
T = Trace of Precipitation, MM = Missing Value Source: NWS Daily Summary

Daily Weather History Graph

Daily Weather History Graph

Search for Another Location

Airport:

Trip Planner

Search our weather history database for the weather conditions in past years. The results will help you decide how hot, cold, wet, or windy it might be!

Date:

Astronomy

Mar. 19, 2014 Rise Set
Actual Time 7:07 AM EDT 7:13 PM EDT
Civil Twilight 6:40 AM EDT 7:40 PM EDT
Nautical Twilight 6:09 AM EDT 8:11 PM EDT
Astronomical Twilight 5:37 AM EDT 8:43 PM EDT
Moon 10:28 PM EDT (3/19) 8:32 AM EDT (3/19)
Length of Visible Light 12h 59m
Length of Day
12h 05m
Waning Gibbous, 91% of the Moon is Illuminated
Mar 19
Waning Gibbous
Mar 23
Last Quarter
Mar 30
New
Apr 7
First Quarter
Apr 15
Full

Hourly Weather History & Observations

Time (EDT) Temp. Windchill Dew Point Humidity Pressure Visibility Wind Dir Wind Speed Gust Speed Precip Events Conditions
12:51 AM 34.0 °F 27.2 °F 27.0 °F 75% 30.26 in 10.0 mi NE 8.1 mph - N/A   Mostly Cloudy
1:30 AM 35.1 °F 29.3 °F 28.0 °F 76% 30.25 in 10.0 mi ENE 6.9 mph - N/A   Overcast
1:43 AM 35.1 °F 27.4 °F 28.0 °F 76% 30.25 in 10.0 mi NE 10.4 mph - N/A   Overcast
1:51 AM 35.1 °F 27.9 °F 28.0 °F 76% 30.25 in 10.0 mi NE 9.2 mph - N/A   Overcast
2:01 AM 35.1 °F 27.9 °F 28.0 °F 76% 30.25 in 10.0 mi ENE 9.2 mph - N/A   Overcast
2:11 AM 35.1 °F 28.6 °F 28.0 °F 76% 30.25 in 10.0 mi ENE 8.1 mph - N/A   Mostly Cloudy
2:43 AM 34.0 °F 28.0 °F 28.0 °F 79% 30.25 in 10.0 mi ENE 6.9 mph - N/A   Mostly Cloudy
2:51 AM 35.1 °F 26.9 °F 28.0 °F 76% 30.25 in 10.0 mi ENE 11.5 mph - N/A   Mostly Cloudy
3:51 AM 35.1 °F 29.3 °F 28.0 °F 76% 30.25 in 10.0 mi ENE 6.9 mph - N/A   Overcast
4:37 AM 35.1 °F 28.6 °F 28.0 °F 76% 30.25 in 10.0 mi ENE 8.1 mph - N/A   Overcast
4:51 AM 35.1 °F 28.6 °F 28.9 °F 78% 30.26 in 10.0 mi NE 8.1 mph - N/A   Overcast
5:22 AM 36.0 °F 28.0 °F 28.9 °F 76% 30.25 in 10.0 mi NE 11.5 mph - N/A   Overcast
5:51 AM 36.0 °F 28.5 °F 28.9 °F 76% 30.26 in 10.0 mi NE 10.4 mph - N/A   Overcast
6:51 AM 36.0 °F 29.0 °F 28.9 °F 76% 30.25 in 10.0 mi ENE 9.2 mph - N/A   Overcast
7:14 AM 36.0 °F 29.0 °F 28.9 °F 76% 30.25 in 10.0 mi ENE 9.2 mph - N/A   Overcast
7:38 AM 36.0 °F 28.5 °F 30.0 °F 79% 30.25 in 10.0 mi ENE 10.4 mph - N/A   Overcast
7:51 AM 37.0 °F 29.8 °F 30.0 °F 76% 30.25 in 10.0 mi ENE 10.4 mph - N/A   Overcast
8:06 AM 37.0 °F 28.9 °F 30.0 °F 76% 30.24 in 10.0 mi ENE 12.7 mph - N/A   Overcast
8:51 AM 37.9 °F 30.9 °F 30.9 °F 76% 30.25 in 10.0 mi ENE 10.4 mph - N/A   Overcast
9:51 AM 39.9 °F 33.9 °F 32.0 °F 73% 30.24 in 10.0 mi East 9.2 mph - 0.00 in   Overcast
10:08 AM 41.0 °F 34.7 °F 32.0 °F 70% 30.23 in 10.0 mi ENE 10.4 mph - N/A   Overcast
10:51 AM 42.1 °F 35.7 °F 33.1 °F 70% 30.22 in 10.0 mi East 11.5 mph - N/A   Overcast
11:51 AM 44.1 °F 38.1 °F 35.1 °F 71% 30.18 in 10.0 mi East 11.5 mph - N/A   Overcast
12:51 PM 45.0 °F 41.2 °F 37.9 °F 76% 30.15 in 9.0 mi East 6.9 mph - 0.00 in Rain Light Rain
1:51 PM 46.0 °F 41.4 °F 39.9 °F 79% 30.12 in 8.0 mi East 9.2 mph - 0.01 in Rain Light Rain
2:39 PM 46.0 °F 41.9 °F 43.0 °F 89% 30.08 in 2.5 mi East 8.1 mph - 0.03 in Rain Light Rain
2:51 PM 45.0 °F 39.7 °F 43.0 °F 93% 30.06 in 5.0 mi East 10.4 mph - 0.04 in Rain Light Rain
3:07 PM 45.0 °F 41.2 °F 43.0 °F 93% 30.06 in 7.0 mi East 6.9 mph - 0.00 in Rain Light Rain
3:19 PM 45.0 °F 41.8 °F 43.0 °F 93% 30.05 in 2.5 mi East 5.8 mph - 0.01 in Rain Light Rain
3:38 PM 45.0 °F 41.8 °F 43.0 °F 93% 30.05 in 1.8 mi ENE 5.8 mph - 0.03 in Rain Rain
3:51 PM 45.0 °F 41.8 °F 43.0 °F 93% 30.05 in 1.5 mi East 5.8 mph - 0.06 in Rain Rain
3:55 PM 46.0 °F 42.5 °F 43.0 °F 89% 30.04 in 1.5 mi East 6.9 mph - 0.01 in Rain Rain
4:10 PM 46.0 °F 41.9 °F 44.1 °F 93% 30.03 in 2.0 mi ENE 8.1 mph - 0.03 in Rain Rain
4:16 PM 46.0 °F 41.4 °F 44.1 °F 93% 30.02 in 1.8 mi ENE 9.2 mph - 0.04 in Rain Light Rain
4:26 PM 45.0 °F 40.1 °F 43.0 °F 93% 30.02 in 2.5 mi East 9.2 mph - 0.05 in Rain Light Rain
4:39 PM 45.0 °F 40.1 °F 43.0 °F 93% 30.01 in 1.5 mi ENE 9.2 mph - 0.06 in Rain Rain
4:51 PM 45.0 °F 40.6 °F 44.1 °F 97% 30.01 in 1.8 mi ENE 8.1 mph - 0.08 in Rain Light Rain
5:15 PM 45.0 °F 41.2 °F 43.0 °F 93% 29.99 in 1.2 mi ENE 6.9 mph - 0.04 in Rain Rain
5:26 PM 45.0 °F 40.6 °F 44.1 °F 97% 29.99 in 3.0 mi East 8.1 mph - 0.06 in Rain Light Rain
5:51 PM 45.0 °F 40.1 °F 44.1 °F 97% 29.96 in 9.0 mi East 9.2 mph - 0.06 in   Overcast
6:33 PM 45.0 °F 40.1 °F 44.1 °F 97% 29.93 in 2.5 mi East 9.2 mph - 0.03 in Rain Light Rain
6:51 PM 45.0 °F 40.6 °F 44.1 °F 97% 29.91 in 1.5 mi East 8.1 mph - 0.05 in Rain Heavy Rain
7:03 PM 46.0 °F 41.4 °F 44.1 °F 93% 29.90 in 3.0 mi East 9.2 mph - 0.04 in Rain Light Rain
7:34 PM 46.0 °F - 45.0 °F 96% 29.89 in 2.5 mi Calm Calm - 0.08 in Rain Heavy Rain
7:51 PM 46.0 °F 42.5 °F 45.0 °F 96% 29.91 in 1.5 mi WNW 6.9 mph - 0.19 in Rain Heavy Rain
8:04 PM 46.0 °F 41.0 °F 45.0 °F 96% 29.91 in 2.0 mi WNW 10.4 mph - 0.03 in Rain Rain
8:21 PM 46.0 °F 42.5 °F 45.0 °F 96% 29.92 in 2.5 mi West 6.9 mph - 0.06 in Rain Rain
8:36 PM 45.0 °F 41.8 °F 45.0 °F 100% 29.91 in 4.0 mi NW 5.8 mph - 0.08 in Rain Light Rain
8:51 PM 45.0 °F 41.2 °F 44.1 °F 97% 29.90 in 6.0 mi NW 6.9 mph - 0.09 in Rain Light Rain
8:59 PM 45.0 °F 41.2 °F 44.1 °F 97% 29.90 in 4.0 mi NW 6.9 mph - 0.01 in Rain Light Rain
9:05 PM 45.0 °F 41.8 °F 44.1 °F 97% 29.89 in 6.0 mi NNW 5.8 mph - 0.01 in Rain Light Rain
9:13 PM 45.0 °F 43.5 °F 44.1 °F 97% 29.89 in 3.0 mi NNW 3.5 mph - 0.03 in Rain Rain
9:21 PM 45.0 °F - 44.1 °F 97% 29.89 in 4.0 mi Calm Calm - 0.03 in Rain Light Rain
9:34 PM 45.0 °F - 44.1 °F 97% 29.89 in 6.0 mi Calm Calm - 0.04 in   Overcast
9:51 PM 45.0 °F - 44.1 °F 97% 29.89 in 5.0 mi Calm Calm - 0.04 in   Overcast
10:01 PM 45.0 °F - 44.1 °F 97% 29.88 in 4.0 mi Calm Calm - N/A   Overcast
10:06 PM 46.0 °F - 44.1 °F 93% 29.88 in 2.5 mi Calm Calm - N/A   Overcast
10:12 PM 45.0 °F - 44.1 °F 97% 29.87 in 1.8 mi Calm Calm - N/A   Overcast
10:43 PM 45.0 °F 43.5 °F 44.1 °F 97% 29.86 in 1.2 mi SSE 3.5 mph - N/A   Overcast
10:51 PM 45.0 °F - 44.1 °F 97% 29.86 in 1.2 mi Calm Calm - N/A   Overcast
11:11 PM 45.0 °F 43.5 °F 44.1 °F 97% 29.87 in 1.2 mi SSW 3.5 mph - N/A   Overcast
11:48 PM 44.6 °F 40.7 °F 44.6 °F 100% 29.86 in 2.0 mi WSW 6.9 mph - N/A   Overcast
11:51 PM 45.0 °F 41.8 °F 44.1 °F 97% 29.86 in 2.0 mi WSW 5.8 mph - N/A   Overcast